CAPE
1168 1189 1256 1418 1777 1985 2204 2088 1814 1828 2097 1985 2050 1844 1692 1806 1978 2099 1952 1799 1904 1960 2007 1612 1324 1448 1709 1588 1891 2042 2354 2317 2211 2032 1689 1697 1384 1635 2338 2545 3704 3642 3926 3858 3468 3401 3609 3683 3668 3578 3606 3657 3676 3687 3445 3314 3102 2742 2606 3102 2258 2362 2032 1684 1607 1046 1078 993 1062 897 736 830 766 903 876 972 1093 1304 1458 1621 1660 1494 1715 1795 1964
1256 1263 1195 1355 1730 1906 2191 2208 1878 1980 2113 2119 1967 1928 1738 1625 1849 2044 1963 1962 1914 1888 1929 1650 1522 1482 1506 1637 1665 1681 2250 2196 2196 2185 1929 1936 2437 2768 2450 2533 3632 4092 3866 3997 3807 3649 3532 3199 3388 3936 3817 3858 3511 3223 3515 3127 3125 2908 2419 2501 2280 1747 2319 1718 1941 1281 2057 1106 1021 1108 972 1001 1020 860 987 1059 1118 1112 1338 1566 1579 1512 1692 1747 1924
1275 1228 1155 1404 1759 1760 2136 2248 2018 1978 2025 1909 1991 1970 1687 1922 1966 2128 2036 2095 2024 1975 1942 1876 1674 1596 1686 1616 1900 1791 1890 1900 1856 1907 2104 1920 2267 2572 2623 3270 3711 3579 3863 3605 3702 3377 3434 3666 3399 3539 3932 3773 3942 3551 3297 3501 3270 2903 2976 2238 2081 2185 2038 2065 2278 1561 1608 1409 1422 1140 1835 1059 1885 1854 1336 1492 1142 1307 1082 1571 1713 1555 1628 1894 2021
1289 1208 1108 1237 1774 2000 2027 2247 2189 2122 1858 1787 1863 1868 1557 2027 2245 2230 2253 2099 2100 2164 2171 2162 2052 2076 2221 2059 2065 1670 1661 2090 2471 2404 2308 2300 2274 2467 2976 3395 3236 3346 3341 3356 3380 3765 3796 3712 3270 3414 3485 3520 3533 3551 3392 3117 2992 2968 2879 2566 2248 2014 1914 2260 2145 2411 1613 1540 1969 1695 1364 900 1358 1878 1483 1697 1161 1760 905 1412 1472 1325 1603 2004 2095
1172 1060 1124 1217 1674 1906 2005 2159 2200 2173 1729 1700 1745 1625 1293 1852 2354 2550 2337 2011 2074 2449 2502 2257 2367 2567 2568 2447 2259 2369 2379 2058 1819 1753 1950 2377 2506 2525 2693 2891 2979 3419 3440 3786 3722 4289 4414 3926 3841 3540 3717 3342 3182 3340 3045 2849 2562 2949 2672 3003 2577 2100 2142 2035 2484 1938 2435 2016 1931 1496 1824 1702 1666 1601 1179 2160 1372 1348 1466 1220 1626 1562 1710 1892 2135
1118 1045 980 1065 1449 1859 1914 2091 2107 2127 1816 1621 1556 1470 1174 1591 2066 2426 2164 2169 2032 2427 2526 2685 2503 2230 2102 1995 1897 1871 1968 1744 1634 1774 1759 2188 2192 2252 2592 2311 2700 3011 3496 3795 3648 4003 4128 4007 3694 3539 3530 3362 2841 3186 3011 2404 3120 2852 2918 2268 2899 2935 2332 1923 2113 2534 2090 2672 2212 2168 1729 1490 1859 1800 1736 2172 1973 1962 1261 1233 1547 1702 1684 1698 2215
981 1056 1007 1045 1346 1563 1894 2057 2039 2161 1972 1575 1410 1454 1250 1360 1930 1941 2018 2082 2022 2421 2455 2678 2484 2238 2200 1775 1682 1636 1776 1674 1877 1576 1552 1708 1908 2564 2856 2847 2989 2947 3256 3607 3796 4161 4387 4401 4120 3333 3267 3217 3074 2890 2936 2461 2470 2413 2383 2447 2482 2505 3001 2523 1830 1621 2389 2448 2146 2100 2446 2079 1885 1804 1831 1486 1825 1342 1732 1717 1478 1628 1616 1624 1914
959 1089 1103 1093 1321 1311 1698 1910 1877 1960 2054 1722 1396 1450 1531 1521 1785 1916 2057 2006 1880 2355 2625 2692 2518 2552 2401 1856 1844 1759 1360 1761 1800 2022 1792 2034 2484 2740 2718 2958 3023 2792 3228 3484 3968 3884 3917 4259 4156 3818 3628 3332 3081 2873 2594 2544 2712 2993 2542 2650 2479 3062 2827 2686 2244 1787 1694 2132 2162 1799 2007 2442 2277 1959 1956 1132 1052 1458 1706 1662 1777 1810 1688 1583 1870
847 1022 1096 1179 1309 1298 1596 1917 1795 1757 1952 1939 1531 1473 1607 1866 1980 1924 2176 2296 2117 2390 2525 2669 2573 2661 2504 2017 2043 1831 1655 1747 2123 2314 2252 2256 2305 2558 2991 2978 3368 3488 3033 3580 3381 3244 3594 3928 4494 4302 3880 3628 3110 2496 2544 2594 2296 2589 3136 3021 3138 3205 2952 2772 2896 2970 1933 1878 2173 2952 1927 1356 1444 1860 1969 2074 2336 2293 1911 1852 1957 1716 1674 1615 1834
870 849 1008 1216 1283 1325 1566 1813 1825 1692 1875 1982 1770 1584 1645 1991 2287 2126 2397 2441 2404 2709 2770 2707 2730 2795 2545 2091 1968 1891 1741 2161 2393 2648 2797 3010 2424 2735 3127 3305 3086 3262 3395 3228 3717 3328 3149 3389 3900 3798 3574 2917 2841 2986 3184 2664 2521 2874 2720 2365 2419 2872 3142 2834 3264 3147 2770 2168 1780 2268 2544 2196 2074 2115 2125 2108 1928 2232 2300 2046 2026 1921 1932 1766 2117
980 938 942 1136 1278 1160 1630 1662 1535 1716 1813 1978 1973 1753 1705 1999 2314 2464 2589 2241 2336 2802 2769 2906 2699 2649 2400 2236 2137 1953 1845 2318 2459 2533 2844 2963 2670 2575 3049 3184 3080 3149 3011 3296 2918 2845 2574 2740 2809 2990 2950 3215 2798 2805 2600 2223 2529 2683 2435 2654 2892 3069 2923 3339 2784 2550 2473 2856 2332 2657 2588 1730 2021 2362 2318 2544 2324 2079 2201 2062 1882 2052 1928 1808 2109
1035 998 844 1029 1425 1043 1751 1683 1500 1581 1757 2011 2014 1878 1851 1902 2217 2524 2628 2466 2282 2542 2501 2520 2364 2313 2183 2254 2300 2098 2200 2164 2476 2444 2528 2736 2524 2525 2766 2910 3066 2954 2790 2689 2693 2013 2232 2471 2358 2488 2976 2853 2917 2601 2368 2380 2164 2336 2272 2353 2692 3053 3041 2938 3004 3142 2842 3040 2877 2247 2413 2252 2258 2301 2207 2200 2320 2556 2389 2233 2068 2141 2137 1890 1942
1144 1124 1050 1033 1355 1541 1580 1485 1834 1725 1846 2054 2005 1906 1925 1913 2167 2429 2603 2600 2560 2277 2409 2398 2341 2219 2214 2144 2167 2106 2149 2447 2452 2248 2454 2512 2487 2478 3021 3013 2822 2793 2676 2192 2113 2038 2113 2480 2515 2397 2922 3108 3116 3229 2996 2862 2666 2606 2553 2573 2640 2942 3233 3354 3627 3469 3159 3014 2815 2428 2289 2154 2167 2431 2376 2471 2276 2200 2477 2451 2254 2029 1923 1887 2216
1619 1405 1164 1108 1323 1734 1268 1133 1604 2005 1704 1286 1770 1980 1993 1917 2154 2323 2658 2690 2684 2421 2249 2399 2424 2367 2257 2070 1921 2051 2195 2095 1994 1942 2132 2406 2514 2572 2476 2423 2400 2308 2000 2138 1993 1817 1737 2167 2545 2876 3183 3594 3644 3704 3279 2964 2962 3109 3122 3058 2817 2845 3222 3609 3131 3059 3049 2962 2907 2788 2577 2329 2317 2269 2358 2158 2254 2065 2063 1882 2294 2373 2070 1498 1746
1753 1779 1511 1247 1347 1634 1683 1661 1542 1615 1353 1262 1833 1877 2068 2035 2251 2408 2624 2734 2766 2554 2311 2328 2200 2348 2251 2003 1935 1799 1710 1702 1741 1916 2211 2332 2212 2202 2506 2172 1864 1908 1789 1878 1888 1767 1920 2149 2765 2838 3174 3415 3402 3312 2832 2929 3191 3223 2829 3374 3543 3082 3309 3205 3055 2804 2457 2366 2682 2832 2848 2665 2098 1993 1934 2075 2041 2028 2053 2027 2412 2684 1682 1649 1543
1790 1829 1726 1549 1470 1627 1625 1804 1882 1691 1855 1979 1834 1921 2109 2190 2323 2491 2516 2684 2645 2633 2402 2258 2175 1970 2126 2141 1890 1796 1625 1495 1620 1962 2341 2405 2424 2281 2504 2481 2316 1982 2134 1958 2114 2289 2166 2139 2452 2727 2841 2925 3338 3391 3220 2782 3233 2950 2752 3197 3410 2790 2889 3509 3509 2858 2623 2744 2518 2643 2442 2064 1945 2110 2253 1987 1915 2026 2226 2360 2610 2800 2940 2771 1702
1999 1970 2006 1892 1715 1614 1580 1676 1828 2072 1960 1655 2137 2075 2023 1905 2345 2627 2492 2551 2512 2616 2366 2112 2050 1847 1989 2016 1806 1747 1731 1559 1401 1873 1829 2116 2276 2216 2130 2246 2276 2349 2140 2147 2200 2351 2382 2444 2484 2338 2474 2873 2767 2927 2908 3070 3161 2914 2505 2998 2949 2979 3032 3476 3137 2624 2605 2168 1979 2098 2246 2391 2505 2685 2655 2308 2619 2979 2590 2712 2620 2705 3151 3085 2759
2583 2453 2318 2170 1954 1800 1661 1552 1797 2052 2045 2054 2105 2240 2594 2779 2555 2556 2522 2471 2291 2272 2014 1908 1928 1876 1889 1946 1726 1736 1545 1312 1179 1480 1646 1967 2292 2151 2147 2032 2174 2252 2045 1812 1891 2181 2609 2548 2386 2277 2360 2626 2742 2702 2872 2889 3122 3049 3104 3058 3117 3496 3659 3659 3430 2995 2606 2261 2058 2046 2299 2532 2600 2561 2370 2354 2507 2994 2758 2673 2756 2698 3048 3124 3106
2789 2705 2517 2420 2267 1948 1861 1612 1899 2154 2040 2194 2354 2346 2504 2631 2262 2113 2298 2156 2040 1993 1822 1805 1793 1713 1683 1687 1512 1502 1437 1408 1280 1177 1355 1722 2033 2068 1943 1915 1938 2140 2246 2221 2205 2126 2178 2421 2644 2449 2564 2541 2585 2475 2807 3128 3686 3752 3378 3261 3315 3700 3571 3476 3608 3405 2996 2433 2562 2780 2880 2894 2863 2773 2741 2358 2326 2499 2752 2834 2808 2802 3064 3165 3302
2876 2722 2648 2405 2158 2079 1910 1861 1931 2204 2547 2201 2001 1848 1996 2210 2226 2020 1990 2066 2158 1890 1871 1754 1683 1697 1550 1604 1623 1650 1676 1482 1441 1367 1107 1261 1577 1820 1863 1711 1711 1939 1990 2214 2184 2118 2005 2113 2292 2284 2126 2352 2484 2437 2621 3055 3408 3518 3292 3019 2741 3795 4084 3963 3413 3126 2772 2672 3006 2981 3027 2890 2568 2591 2426 2409 2348 2381 2910 2987 2768 3089 3176 3192 3321
2734 2712 2226 2400 2276 2046 2001 2263 2556 2543 2284 1860 1704 1476 1687 1756 1533 1588 1978 1816 1857 1964 1868 1925 1773 1658 1669 1629 1590 1754 1549 1487 1306 1242 1286 1139 1235 1438 1401 1648 1771 1882 1870 1988 2014 2036 2141 2229 2190 2409 2340 2498 2845 3088 2974 3235 3544 4179 4061 3676 3535 3669 4331 3602 3446 3638 3291 2904 2861 3534 2925 2816 2962 2703 2463 2222 2041 2002 2558 2841 2916 2798 2554 2694 2997
2556 2489 2392 2409 2316 2109 2180 2295 2071 1948 1857 1767 1415 1443 1632 1410 998 1134 1754 1768 1402 1691 1934 1992 1884 1853 1576 1557 1634 1436 1621 1285 1053 854 1105 931 1013 1220 1385 1368 1504 1735 1926 1894 1934 2013 2045 2170 2209 2355 2354 2480 2859 3673 3456 3068 3261 3703 3726 3048 3002 3932 4420 3984 3367 3484 3442 2990 2468 2788 2426 2592 2634 2400 2230 2392 2300 2619 2439 1872 2081 2182 2234 2372 2991
2582 2520 2676 2562 2424 2530 2402 2199 1955 1724 1701 1690 1572 1487 1596 1553 1395 1840 1906 1930 1629 1575 1820 2035 2118 1973 1812 1582 1524 1450 1341 1301 894 455 491 581 696 1019 1224 1329 1239 1213 1426 1480 1565 1706 2035 2381 2709 2665 2976 3103 3675 3544 3436 3294 3545 3755 3886 3179 2271 2568 3174 3487 3121 3188 3039 3483 2844 2785 2908 2915 2880 2545 2671 2790 2646 2580 2544 2279 2342 2394 2553 2138 2357
2628 2616 2719 2680 2603 2420 2464 2313 2183 2075 1919 1760 1727 1690 1751 1848 1941 1959 2115 2311 2086 1873 1905 2209 2344 2236 1939 1713 1478 1456 1189 1224 839 465 269 351 330 458 952 1118 1003 932 930 1306 1380 1455 1989 2379 2682 2717 2827 3594 3565 3673 3605 3619 3889 3781 3174 2460 2233 2304 2226 2346 2406 2664 3175 2860 2838 2695 2755 2826 3036 2864 2880 2756 2655 2595 2485 2667 3029 3099 3340 3060 2840
2190 2662 2641 2538 2298 1855 2026 1976 2427 2306 2062 1968 1882 1877 1843 1962 2130 2129 2295 2227 1981 2007 2008 2216 2498 2402 2000 1670 1512 1357 1270 1236 1135 634 345 218 168 99 278 685 846 628 614 755 1545 1728 1709 2352 3028 2896 2822 3137 3381 3482 3634 3336 3189 2990 2543 2180 2215 2261 2248 2124 2153 2639 3359 3359 2882 2566 2695 2888 3063 3060 2965 2700 2425 1848 2669 2915 2696 2623 2820 3044 2980
2339 2438 2335 2066 1691 1845 1881 2127 2124 2237 2379 2216 2258 2028 2014 2240 2093 2220 2200 2269 2149 1996 1962 2206 2504 2534 2393 1713 1562 1429 1310 1263 1263 1113 788 460 290 112 88 170 481 580 453 433 710 1791 2122 2685 3006 2763 2803 2965 3036 3035 3079 3830 3680 3078 2600 2425 2509 2525 2518 2263 2416 2313 3688 3420 3068 2908 2911 2888 2959 2845 2844 2957 2535 2029 2402 2676 2560 2672 2614 2856 3129
2237 2113 1866 1721 1669 1644 1758 1984 1896 2170 2167 2353 2451 2360 2191 2333 2375 2154 2042 1996 2251 2133 2074 2257 2124 2379 2224 1939 1568 1465 1489 1269 1283 1406 1323 893 492 314 154 119 185 318 273 272 416 1154 2139 2812 3319 3034 2379 2634 3059 3105 3369 4433 3817 3364 2986 2758 2625 2882 2722 2636 2296 2395 3557 3330 3112 2881 2988 2977 2845 2814 2744 2799 2603 2302 1857 2033 2828 2824 3024 3027 2730
2098 1882 1649 1563 1491 1672 1701 1695 1755 1775 1958 1990 2023 2072 2108 2288 2193 2056 1932 1821 1934 2232 2428 2571 2467 2182 2283 2214 2070 1823 1858 1741 1555 1649 1979 1722 958 515 407 339 235 260 290 206 185 311 1489 2309 2361 2701 2974 2655 2960 3003 3952 4496 3956 3339 2735 2530 2591 2610 2793 2703 2812 3207 3470 3502 3394 2807 2345 2568 2640 2923 3024 1905 1614 1889 1380 1372 1980 2404 2479 2576 2490
1895 1785 1454 1450 1532 1524 1605 1478 1604 1626 1748 1835 2043 2029 1870 1837 2048 2089 1861 1720 1796 2033 2321 2413 2429 2194 2327 2464 2530 2488 2276 2218 2264 2213 2497 2822 2494 1344 644 687 660 549 288 317 332 150 316 1084 1616 2057 2872 2982 2545 2392 3536 4401 4062 3270 2764 2436 2399 2308 2515 2545 2633 2901 3257 3311 3266 2983 2628 2777 2865 2743 2172 1947 1925 2048 1939 1923 1721 2220 2755 2469 2281
1934 1772 1406 1142 1152 1202 1355 1236 1231 1177 1237 1500 1727 1725 1816 2042 1943 1686 1816 1886 1710 1757 1894 2170 2330 2534 2524 2693 2799 2800 2738 2616 2830 3133 3298 3477 3276 2635 1794 1422 1253 982 913 802 640 586 391 326 802 1832 2673 2587 1866 1666 3709 3495 2782 2719 2873 2613 2320 2400 2556 2543 2577 2874 3151 3096 2841 2780 2687 1848 2337 2443 2234 2018 2080 1930 1831 1746 2286 2515 2448 2215 1508
1798 1661 1340 1114 1009 975 1032 1039 979 947 1004 1103 1290 1394 1516 1636 1758 1838 1873 1690 1599 1660 1748 2134 2226 2363 2593 2823 2826 3004 3129 2977 3010 3295 3581 3737 3746 3186 2649 2366 2128 1978 1747 1634 1531 1014 1017 532 271 683 1531 2022 1726 1460 3351 2338 1499 1918 2661 2751 2799 2821 2739 2764 2708 2917 2905 3052 3028 2785 2760 2659 2713 2235 1771 1749 1714 1668 1683 1554 1508 1337 1082 868 1346
1859 1466 1162 1084 1061 914 808 692 825 865 858 984 1003 990 1178 1366 1547 1640 1771 1900 1902 1765 1627 1892 2068 2204 2596 2733 2833 2974 3082 3259 3278 3344 3514 3697 3683 3547 3315 3090 2806 2417 2698 2334 1904 1713 1570 1224 669 531 798 1422 1400 3136 2616 1867 1229 1012 1450 2192 2502 2510 2484 2730 2877 2763 2692 2783 2823 2534 2229 1831 2467 1896 1442 1394 1457 1453 1338 1311 1179 1085 910 490 187
1686 1156 1054 1007 897 748 763 835 903 886 834 787 760 813 962 1089 1192 1367 1631 1597 1796 1872 1945 1895 1914 2262 2212 2490 2744 2922 3010 3307 3504 3439 3503 3479 3646 3661 3555 3319 2984 2840 2531 2790 2649 2095 2079 1845 1308 1454 1560 1490 1972 2307 2215 1668 1178 1014 1036 1606 2246 2577 2927 2984 2900 2432 2511 2613 2639 2447 2073 1299 1148 1406 1274 1182 1102 933 870 908 755 730 613 393 207
1439 1008 920 946 820 746 762 786 672 673 645 597 446 408 479 498 548 701 1009 1452 1558 1494 1723 1918 1914 1919 2160 2276 2461 2703 2760 3030 3508 3594 3587 3537 3443 3575 3532 3302 3056 3023 2915 2820 2756 2640 2202 2325 2124 2033 2236 1738 1832 1916 1890 1424 1059 1024 899 1179 2286 2660 2434 2368 2596 2785 2872 2788 2507 2373 1804 1188 1159 1127 1100 1069 984 932 752 704 583 572 441 364 239
1260 789 796 873 731 728 654 597 568 481 374 308 341 356 339 242 280 338 532 805 1040 1322 1520 1536 1756 1957 1965 2174 2300 2335 2684 2808 3262 3624 3555 3583 3631 3643 3694 3460 3181 3177 3285 3288 3024 2861 2631 2472 2578 2362 2410 2538 1681 1537 1404 1166 1106 1069 1117 1018 1840 2289 2488 2535 2523 2688 2671 2421 1660 1476 1313 925 694 996 806 689 753 623 498 418 314 298 95 123 137
1060 833 882 800 675 594 540 448 333 266 224 192 203 225 174 162 149 200 339 506 769 1071 1345 1617 1517 1672 2069 2077 2086 2157 2283 2674 3001 3389 3662 3727 3616 3572 3509 3491 3452 3426 3455 3560 3580 3150 2799 2648 2616 2694 2706 2124 1580 1477 1365 1302 1204 1167 1066 947 1619 1939 2300 2248 1746 1555 1589 1554 1429 1314 1164 1069 1007 917 818 752 658 458 4 5 2 0 75 29 30
950 974 868 768 632 483 382 241 210 212 205 230 190 152 139 131 141 160 214 320 418 713 1017 1333 1584 1705 1707 1968 2067 2182 2235 2436 2882 2981 3408 3614 3472 3332 3121 3239 3451 3616 3801 3940 3810 3338 3057 2971 2722 2626 2498 1658 1467 1371 1389 1390 1272 1118 981 1200 1691 2253 1581 1392 1389 1341 1366 1081 901 850 761 772 815 512 512 480 371 291 16 7 3 0 0 0 1
887 838 708 660 564 406 266 178 258 226 215 210 177 216 188 185 184 199 201 204 263 417 743 955 1216 1548 1707 1690 1877 2063 2242 2385 2517 2734 2868 3133 3328 3309 3242 3206 3489 3639 3581 3765 3696 3394 3150 3021 2608 2529 2344 1286 1357 1377 1377 1357 1230 1092 1028 1634 2114 1072 890 965 1102 1079 849 822 917 762 713 636 544 347 40 178 188 43 23 8 1 0 0 0 0
824 625 652 566 397 297 225 230 259 224 248 186 191 223 181 159 181 208 245 242 225 276 417 694 942 1092 1396 1605 1629 1852 2043 2116 2335 1869 2263 2757 3026 3175 3238 3255 3375 3427 3376 3311 3039 2703 2442 2204 2077 1742 1276 1223 1318 1286 1286 1292 1178 1131 1111 1450 1120 1038 991 968 666 624 593 635 752 751 564 387 261 1 0 0 7 40 22 14 32 4 7 0 0
626 562 466 329 320 270 280 233 226 209 174 166 182 180 157 156 178 240 299 343 368 373 378 420 553 835 1089 1216 1492 1616 1763 1958 2167 2370 2568 2678 2707 2867 2988 3187 3325 3085 2946 2843 2392 1999 1779 1440 1168 1183 1271 1199 1240 1201 1173 1201 1150 1122 1118 1076 988 839 643 806 938 991 851 689 739 541 328 0 0 0 0 6 11 14 16 2 0 0 0 0 0
505 406 278 235 237 245 174 159 155 169 177 154 177 165 181 210 224 263 318 410 476 580 573 634 592 504 690 959 1233 1446 1632 1809 2045 2387 2777 2152 2183 2680 2992 3097 3244 2923 2508 1737 1694 1605 1099 1208 1165 1249 1232 1171 1153 1133 1110 1115 1087 1028 1044 994 963 733 888 891 1011 918 695 452 327 190 0 0 0 0 0 0 0 0 0 0 0 0 0 0 0
475 313 179 163 174 188 150 115 153 170 162 167 147 141 183 238 256 297 385 385 368 446 490 626 774 578 521 556 888 1256 1355 1527 1665 2034 1489 1689 2644 2718 2795 2882 2533 1936 1506 1616 1008 917 965 1005 1037 1131 1116 1092 1001 887 1006 1027 988 925 879 942 965 891 589 747 552 452 337 121 7 3 0 0 0 0 0 0 0 0 0 0 0 0 0 0 0
420 293 205 107 189 148 65 147 174 182 118 113 162 176 150 184 248 295 270 229 247 302 427 649 758 726 766 439 576 862 1296 1428 1440 1704 2297 2803 2907 2668 2419 1996 1720 1279 1085 776 803 916 986 1006 1008 985 1008 994 779 741 908 944 951 874 947 1073 1002 734 451 319 134 3 6 11 13 2 0 0 0 0 0 0 0 0 0 0 0 0 0 0 0
264 122 223 116 159 83 84 204 223 178 134 91 143 173 191 220 224 216 242 242 234 285 309 575 791 703 545 542 550 693 1018 1232 1415 1558 1857 2311 2360 2051 1410 1203 1156 1008 1004 1102 1078 952 866 944 970 914 919 777 604 594 740 882 950 946 1008 873 570 218 1 3 4 5 8 6 2 0 0 0 0 0 0 0 0 0 0 0 0 0 0 0 0
201 140 89 82 77 65 145 234 188 121 66 55 86 194 194 221 215 228 258 252 245 279 354 437 681 893 930 756 675 667 886 1165 1129 1399 1821 1913 1634 1240 1113 1006 836 871 1154 1207 1115 864 766 850 941 933 854 688 534 535 642 716 749 638 586 305 73 1 1 1 9 14 9 2 0 0 0 0 0 0 0 0 0 0 0 0 0 0 0 0 0
118 216 91 61 80 152 236 232 149 67 23 80 74 188 164 124 83 85 64 168 261 302 388 431 467 470 626 713 873 849 906 1090 1318 1396 1452 883 920 861 830 725 716 816 913 1062 971 833 688 648 690 719 788 678 538 619 387 486 551 324 157 58 0 0 2 1 0 0 0 0 0 0 0 0 0 0 0 0 0 0 0 0 0 0 0 0 0
306 106 40 104 164 201 235 167 116 51 48 59 86 88 54 47 50 46 44 171 280 342 387 422 394 458 436 286 421 372 409 538 603 842 859 731 672 560 570 640 618 646 745 758 782 835 715 526 564 636 634 546 463 575 420 241 7 93 61 30 15 4 3 10 12 3 0 0 0 0 0 0 0 0 0 0 0 0 0 0 0 0 0 0 0
94 102 85 194 153 120 108 56 33 20 54 115 103 59 20 14 14 10 8 85 174 225 284 365 267 331 414 467 396 321 211 290 355 465 609 618 653 628 459 381 472 494 610 604 702 752 798 751 690 629 581 614 406 185 113 172 70 35 22 12 7 16 23 23 18 0 0 0 0 0 0 0 0 0 0 0 0 0 0 0 0 0 0 0 0
166 109 69 200 84 64 27 30 19 14 76 124 68 30 29 282 277 282 309 326 365 327 302 310 260 249 271 322 385 383 277 115 280 483 650 595 641 582 501 471 402 524 618 582 719 729 724 670 625 660 573 418 289 212 33 1 7 5 14 29 36 6 8 2 0 0 2 0 0 0 0 0 2 0 0 0 0 0 0 0 0 0 0 0 0
75 56 83 62 43 34 8 3 13 47 161 90 57 15 5 21 151 290 117 280 336 366 358 311 249 201 175 104 213 284 322 426 269 253 369 512 456 322 352 388 357 277 322 508 436 565 578 530 466 430 344 251 155 3 5 2 4 12 10 8 3 6 19 23 23 26 26 24 21 21 16 21 2 5 4 4 0 0 1 1 0 0 0 0 0
45 29 35 48 9 1 255 240 3 39 109 66 60 7 6 5 4 5 4 7 7 136 260 260 272 217 204 163 153 80 155 243 338 378 261 251 274 283 260 214 365 448 401 362 333 282 318 263 160 228 86 12 10 1 0 1 3 0 5 19 27 42 54 60 63 66 61 56 58 65 46 2 12 2 1 2 0 0 0 0 0 0 0 0 0
Wind_Speed
4 2 1 1 3 4 4 4 3 2 1 3 2 3 2 2 3 2 5 6 7 8 8 8 6 6 6 6 6 7 8 8 9 11 11 11 10 11 11 11 10 10 10 11 11 11 13 12 11 12 12 11 11 11 11 12 10 10 6 7 8 7 6 6 5 7 7 5 3 5 5 5 7 7 7 9 8 8 7 8 7 10 10 11 11
4 1 1 1 2 5 5 5 4 3 1 2 1 2 2 2 1 1 4 6 7 8 8 8 6 7 6 6 6 6 7 9 9 10 11 11 12 13 11 11 10 10 10 10 11 11 10 9 9 9 9 8 9 8 9 8 9 9 9 6 5 7 6 7 8 8 3 4 4 4 4 2 2 6 8 7 7 8 9 7 9 12 11 11 9
2 1 1 1 3 4 5 5 4 3 1 1 1 1 2 1 2 2 4 6 7 7 7 7 6 6 6 6 7 6 7 8 9 9 9 9 10 11 11 11 10 10 9 9 9 10 9 10 9 6 8 7 7 7 6 7 7 7 7 7 8 3 5 4 5 7 7 5 3 5 1 3 4 4 5 7 7 7 7 9 10 11 10 8 7
1 1 3 2 3 3 4 5 5 4 2 1 1 2 1 1 1 2 3 5 6 6 7 6 6 6 8 6 7 7 7 8 9 9 11 10 9 9 10 10 10 9 8 8 8 9 9 9 9 8 6 7 7 7 7 6 5 5 7 7 7 6 3 3 4 3 6 5 4 4 4 2 3 3 5 4 8 6 7 9 7 9 9 5 8
2 0 1 3 3 3 3 5 5 3 2 2 0 1 2 1 1 1 3 4 6 6 5 6 6 4 5 6 6 7 8 8 7 7 8 9 9 8 8 8 8 10 8 8 9 8 8 8 9 8 7 7 7 6 7 8 8 6 5 5 5 7 6 4 2 3 3 3 4 4 2 3 2 4 6 5 6 7 8 8 5 9 7 6 7
4 3 2 2 2 4 3 4 4 3 2 2 1 2 0 1 1 1 4 4 5 5 5 6 5 3 2 2 4 5 5 6 6 6 6 6 8 7 6 6 6 7 8 8 7 8 6 7 7 8 5 5 7 8 9 8 4 6 5 6 4 2 6 5 4 1 1 1 1 1 1 4 3 4 7 5 7 6 8 7 6 6 8 7 4
5 4 4 2 4 3 2 3 3 3 3 3 2 3 2 3 2 1 2 4 4 5 4 6 5 3 1 2 2 3 4 5 6 6 5 5 7 7 7 6 6 7 6 7 7 7 7 6 6 7 7 6 6 6 6 7 6 6 7 5 5 5 4 4 3 3 3 3 1 2 2 3 3 5 5 8 7 5 7 8 5 5 7 9 3
6 6 5 3 4 3 2 2 3 4 4 3 3 4 3 4 4 2 3 3 3 5 4 4 4 4 2 2 2 3 3 4 5 7 8 8 6 6 6 6 5 7 8 6 7 6 6 5 6 7 7 7 6 6 7 7 8 7 5 5 4 3 4 4 5 5 4 1 3 4 2 3 4 6 7 8 9 7 5 6 6 4 7 6 4
4 7 6 5 4 3 2 1 2 2 4 4 4 4 5 4 4 4 4 4 4 4 3 3 3 4 4 3 4 5 5 5 6 6 6 6 6 6 7 7 5 5 7 7 6 7 6 6 5 6 6 6 6 6 5 5 5 5 3 2 2 2 2 3 4 4 6 4 2 3 5 5 5 5 6 8 8 6 5 6 7 4 6 5 2
6 5 6 6 4 2 2 3 2 1 4 5 5 5 5 5 5 5 5 5 5 5 4 3 2 4 4 4 5 6 6 8 8 7 7 6 5 5 6 7 6 4 4 6 6 6 6 5 5 5 5 5 6 7 7 6 4 3 3 4 5 5 4 4 4 5 5 6 6 3 3 4 5 5 6 6 5 4 7 7 7 7 6 3 4
7 5 4 7 6 4 5 4 2 0 4 6 6 6 6 5 5 5 5 5 6 6 5 5 4 4 4 4 5 5 6 8 8 7 7 6 6 5 5 5 6 6 5 3 5 5 5 5 6 5 5 6 6 6 5 5 3 2 3 2 4 5 4 6 6 6 6 5 6 3 4 5 3 5 4 3 5 5 5 6 8 6 6 8 3
2 2 3 6 7 7 8 5 2 2 4 7 6 7 7 7 6 5 5 5 6 6 6 5 5 5 4 4 4 5 6 7 8 7 7 7 6 6 7 6 5 4 5 5 3 4 3 3 4 5 5 6 5 5 6 5 5 4 4 3 4 3 5 6 8 8 8 5 5 5 3 4 3 4 3 2 3 4 4 6 7 5 6 7 2
7 3 2 4 6 8 12 9 5 7 6 4 5 7 8 8 7 5 5 5 5 5 6 5 5 5 4 4 5 5 5 6 8 8 9 9 8 7 6 6 5 4 3 3 3 4 2 3 4 4 5 6 7 8 7 6 7 7 6 5 4 4 4 5 4 5 5 6 6 5 4 4 3 3 2 2 4 4 6 6 5 4 6 7 2
7 6 5 4 5 7 13 10 10 10 8 5 4 7 9 9 8 6 5 6 6 5 5 5 5 5 5 4 5 5 5 6 7 8 8 9 9 8 6 5 4 3 2 3 5 3 4 3 4 4 5 6 6 6 6 6 6 6 6 5 6 5 6 5 5 6 5 4 4 5 5 5 4 3 2 2 2 3 3 3 3 3 5 4 5
6 6 7 7 6 6 9 12 14 13 11 6 7 8 9 9 10 7 6 6 5 4 5 4 4 4 4 4 4 4 4 5 6 8 9 9 8 6 6 6 5 5 5 5 6 6 6 6 5 5 4 5 5 5 5 4 5 5 6 7 8 7 6 6 7 6 6 6 5 5 5 5 5 4 3 3 2 2 3 3 3 3 3 2 3
7 6 7 7 8 8 9 11 12 13 14 11 11 11 10 10 10 9 7 6 6 5 5 4 3 4 5 4 2 2 4 5 6 7 8 8 7 7 7 6 7 8 7 8 6 5 5 5 4 4 5 5 4 5 6 7 6 7 7 7 7 7 6 5 5 6 6 6 6 5 5 5 5 5 5 4 3 3 2 3 3 3 2 2 4
12 9 7 8 9 9 9 10 11 12 14 13 13 13 13 12 11 11 10 8 6 6 5 4 4 4 4 4 2 1 1 2 3 3 4 5 6 7 7 6 6 7 8 7 6 5 6 6 6 6 6 6 6 6 7 8 8 8 7 6 7 6 6 5 6 6 6 6 5 5 5 5 5 5 5 5 3 2 4 3 2 2 3 3 2
16 13 10 9 9 10 10 11 11 12 13 14 15 14 13 13 11 11 12 11 9 7 6 6 5 4 4 4 2 1 2 1 2 2 3 5 5 6 7 6 6 7 8 9 8 7 7 7 8 9 9 8 9 9 8 8 8 8 7 7 6 7 7 6 6 6 5 5 5 5 5 4 4 5 5 5 3 2 3 2 2 3 5 5 5
21 19 16 13 11 11 11 12 13 12 13 17 18 16 14 13 12 9 9 12 10 9 8 7 7 7 6 5 4 2 2 3 3 4 5 4 4 5 5 6 7 7 8 9 9 9 8 8 8 9 8 8 8 8 8 8 7 7 7 6 5 5 6 6 6 5 5 5 5 5 4 4 4 5 5 5 4 2 1 0 2 3 5 5 7
26 24 21 18 14 12 11 12 14 15 17 17 17 16 13 13 11 9 9 10 9 9 10 7 7 7 7 7 5 3 2 3 4 4 4 4 4 5 5 5 6 8 7 7 8 9 10 9 9 8 9 9 8 7 7 6 6 7 8 8 9 8 7 7 6 6 6 5 3 2 1 1 1 1 1 0 1 2 2 2 3 5 6 7 8
26 26 25 23 20 17 15 16 15 15 13 13 14 14 14 16 13 9 11 11 9 10 10 9 8 8 7 6 7 6 2 2 2 3 4 4 4 5 5 6 7 7 8 8 8 9 9 10 11 11 10 11 10 10 10 10 9 8 8 9 10 9 8 7 6 5 3 2 2 1 4 1 4 3 3 4 2 2 5 7 7 7 7 9 10
23 25 26 26 24 21 19 16 14 13 11 11 13 15 15 18 14 9 10 10 9 11 13 12 10 9 7 7 6 7 5 3 2 2 2 3 4 5 5 6 6 7 7 8 8 8 8 9 10 10 10 10 10 10 9 9 10 9 10 10 9 8 7 6 5 3 3 1 4 9 3 2 4 5 5 5 6 8 4 4 9 9 8 9 12
20 22 24 25 25 23 22 19 16 14 13 12 13 14 15 15 13 13 11 11 10 11 14 14 13 11 8 7 7 7 6 4 2 3 2 3 4 4 5 5 5 6 6 7 7 7 9 10 10 11 12 11 12 11 11 11 12 11 9 11 12 11 8 6 3 2 2 7 7 6 5 5 6 6 6 5 5 7 11 6 7 8 9 9 12
18 19 21 23 24 24 23 22 20 18 15 13 13 13 14 14 16 16 14 13 14 13 14 14 14 12 10 8 8 7 6 6 5 5 4 4 5 5 5 5 6 6 6 7 8 8 9 10 10 11 11 12 11 11 11 10 8 8 14 12 9 8 7 5 4 3 9 9 9 8 7 7 7 7 7 6 5 6 9 10 10 10 10 10 11
17 19 20 20 21 22 22 22 22 21 19 17 14 14 13 14 16 18 17 16 15 15 14 14 14 13 11 10 8 8 7 7 7 7 5 4 5 nan 7 6 7 7 8 8 9 10 10 11 11 11 11 11 11 10 9 7 10 16 13 12 10 9 7 5 5 4 10 10 11 10 8 8 8 8 8 7 7 5 8 12 11 11 12 11 12
17 19 20 20 20 20 21 22 23 23 23 22 19 15 15 15 15 17 18 19 18 16 14 14 14 14 12 10 10 9 8 8 8 8 8 7 7 6 nan 8 8 8 9 9 10 11 12 11 11 11 11 12 11 10 8 10 15 14 13 9 8 7 7 7 6 6 10 11 10 10 10 10 10 10 8 8 8 7 6 12 11 11 11 12 12
18 19 21 20 20 20 21 21 23 24 24 24 22 19 16 16 16 17 18 20 20 17 15 15 14 13 13 11 10 11 11 11 11 11 11 11 9 9 8 8 10 10 9 9 10 11 12 12 12 12 12 13 12 10 10 14 13 12 11 11 8 7 7 9 8 7 11 11 11 11 12 12 11 11 10 10 13 13 10 6 13 11 12 12 13
18 19 21 22 21 21 21 22 23 25 26 25 23 21 18 16 17 19 20 21 22 19 16 15 15 13 13 12 13 13 13 13 14 15 14 13 11 10 10 11 11 11 11 10 10 12 12 12 12 13 13 13 13 11 13 14 14 14 14 11 9 9 10 10 10 11 12 13 13 13 13 14 14 13 16 20 16 14 15 11 11 16 13 14 15
19 20 21 22 22 22 23 23 24 25 26 26 25 23 21 18 16 18 20 21 23 22 18 16 14 13 13 14 15 15 15 16 15 15 16 16 15 13 12 12 13 13 13 12 12 12 13 12 13 14 14 14 13 13 14 15 16 16 14 14 13 13 13 13 13 12 14 15 14 14 16 16 19 19 24 21 21 21 14 15 14 18 18 19 19
19 19 20 20 22 23 23 23 23 23 23 25 26 25 23 20 18 17 16 19 22 23 22 18 15 14 15 16 16 16 17 17 17 17 17 17 17 16 14 13 13 13 14 15 15 15 14 13 14 16 14 14 14 15 20 23 21 19 19 18 18 17 16 15 15 15 15 15 16 16 17 18 21 20 24 25 30 30 26 24 22 22 21 21 22
19 19 19 19 20 21 22 23 23 22 22 22 24 25 24 23 21 19 18 16 17 20 23 22 18 16 16 17 17 17 17 17 18 18 18 17 18 18 17 15 15 15 15 16 16 15 15 14 14 15 15 15 15 17 29 26 24 20 19 19 18 17 17 16 16 16 16 16 16 19 18 23 23 28 32 36 35 35 34 34 35 33 29 23 20
21 19 19 19 20 21 23 23 23 21 21 22 23 24 23 22 22 20 18 18 16 17 20 23 22 19 18 17 18 18 17 17 18 18 18 18 19 18 18 17 17 16 17 16 16 17 18 17 17 16 16 15 16 31 30 26 22 21 18 18 19 19 19 19 18 17 17 17 17 19 20 24 24 31 32 32 36 38 38 39 38 36 35 35 34
22 21 19 19 19 20 22 24 24 23 21 21 23 24 24 26 24 24 22 18 15 15 18 22 24 24 21 19 18 18 17 17 18 18 20 20 19 19 18 18 17 18 18 18 18 19 20 20 19 19 18 16 22 29 29 25 23 22 20 17 21 21 21 21 19 18 18 19 21 20 22 25 28 34 31 32 32 36 38 41 40 40 40 38 35
22 22 21 20 19 20 22 23 25 25 25 24 22 21 22 23 24 24 22 21 20 16 15 18 22 24 25 23 21 19 18 17 18 19 20 21 20 20 19 20 20 20 20 19 19 19 21 22 22 21 21 17 26 31 29 26 25 25 24 23 23 23 23 22 21 21 22 23 24 25 24 27 28 30 32 34 35 35 35 36 38 38 38 39 40
22 22 24 23 21 21 21 22 25 26 25 23 21 21 22 23 23 22 21 19 20 21 18 17 18 22 24 26 25 22 19 18 18 19 20 20 20 21 21 22 22 22 22 22 23 23 23 23 23 23 24 21 31 34 30 29 28 29 32 25 26 25 26 25 25 27 29 29 30 32 33 31 27 31 33 36 37 36 35 36 38 39 nan 39 37
22 24 24 23 23 22 22 23 23 23 24 24 22 22 21 21 23 22 21 20 20 18 18 19 18 19 21 24 26 25 22 20 19 20 20 20 20 21 23 24 25 25 25 26 27 27 25 25 25 25 25 25 35 34 33 31 32 33 35 30 29 28 27 32 35 35 33 32 32 31 30 30 30 32 37 37 38 37 nan nan nan nan nan nan nan
19 21 22 23 23 23 22 22 21 21 23 24 23 22 20 20 21 21 21 21 20 19 17 16 18 19 19 22 25 27 26 24 22 20 19 19 20 21 22 25 26 26 28 29 29 30 29 28 29 29 29 33 36 35 33 34 34 36 34 32 31 32 36 36 36 37 37 36 34 33 33 33 32 34 37 37 35 39 nan nan nan nan nan nan nan
19 20 20 21 23 23 21 21 21 21 22 23 24 23 21 21 21 21 21 20 20 20 20 18 16 16 17 19 23 26 28 27 25 21 20 21 21 23 23 25 26 27 28 29 30 33 35 34 33 32 33 37 38 39 36 36 36 37 33 35 36 37 38 37 37 37 37 36 35 38 36 36 37 37 nan 37 29 nan nan nan nan nan nan nan nan
18 19 20 21 21 21 20 20 21 21 23 24 25 24 23 22 22 22 21 21 20 21 20 19 18 17 17 17 19 22 26 27 26 24 24 23 24 25 26 27 27 28 28 30 32 34 34 34 34 36 43 42 42 42 38 37 37 37 34 36 38 37 38 40 39 38 38 39 40 40 39 39 40 nan nan nan nan nan nan nan nan nan nan nan nan
19 20 21 19 19 18 19 20 21 23 24 24 26 26 25 24 23 23 21 21 21 20 20 20 21 20 19 17 17 18 21 24 25 27 28 28 29 30 30 30 30 28 28 31 33 34 36 38 40 41 42 42 45 44 42 38 36 38 33 38 41 40 39 40 40 41 41 43 43 43 45 nan nan nan nan nan nan nan nan nan nan nan nan nan nan
20 22 21 19 19 19 19 19 20 22 23 24 26 26 27 27 26 24 23 23 24 24 22 22 21 21 20 19 18 17 17 20 24 28 31 33 34 34 34 34 34 33 34 34 32 35 37 41 40 41 41 43 44 46 46 41 39 38 36 38 40 42 42 42 42 43 45 46 45 45 nan nan nan nan nan nan nan nan nan nan nan nan nan nan nan
22 21 20 20 19 18 18 18 19 21 23 24 26 27 27 28 27 27 27 27 25 24 24 23 21 19 19 19 19 18 19 21 23 26 28 30 34 36 38 38 39 38 36 36 37 38 38 39 41 43 45 46 48 48 48 48 47 47 43 38 42 47 47 48 48 50 51 50 nan nan nan nan nan nan nan nan nan nan nan nan nan nan nan nan nan
20 20 21 20 19 19 nan 18 18 20 21 23 25 26 28 29 29 30 30 29 28 26 25 23 22 22 21 19 19 19 20 22 23 25 27 30 35 39 41 42 43 44 42 42 41 41 41 41 43 45 46 47 50 50 50 50 51 54 53 53 53 52 50 51 53 nan nan nan nan nan nan nan nan nan nan nan nan nan nan nan nan nan nan nan nan
20 20 21 20 18 nan nan 17 17 18 19 nan 24 26 28 29 30 32 31 30 30 29 27 25 23 24 23 21 20 20 19 20 21 24 25 26 32 36 41 44 46 48 47 46 46 44 44 44 45 47 47 49 51 52 53 54 55 57 58 61 59 55 nan nan nan nan nan nan nan nan nan nan nan nan nan nan nan nan nan nan nan nan nan nan nan
20 20 nan nan nan nan 16 16 17 17 nan nan nan 23 26 29 33 33 33 32 32 32 31 28 26 26 26 24 24 21 21 21 22 23 24 28 31 35 41 43 47 49 48 48 48 47 46 46 46 49 51 52 54 54 52 54 59 59 62 65 nan nan nan nan nan nan nan nan nan nan nan nan nan nan nan nan nan nan nan nan nan nan nan nan nan
18 20 nan nan nan 16 16 16 16 nan nan nan nan 20 23 28 nan nan nan 34 34 34 34 33 31 31 29 27 24 27 28 27 25 25 27 30 31 35 38 40 45 47 48 48 49 48 48 48 48 51 55 54 53 53 52 53 59 65 66 nan nan nan nan nan nan nan nan nan nan nan nan nan nan nan nan nan nan nan nan nan nan nan nan nan nan
19 21 nan 18 18 18 18 17 17 nan nan nan nan nan nan nan nan nan nan 37 37 37 39 39 39 37 37 37 38 36 38 40 41 41 41 40 40 38 39 39 41 44 46 47 48 49 51 51 52 55 57 57 56 55 54 53 nan nan nan nan nan nan nan nan nan nan nan nan nan nan nan nan nan nan nan nan nan nan nan nan nan nan nan nan nan
nan 20 nan 19 19 18 18 nan nan nan nan 16 17 nan nan nan nan nan nan nan 39 40 41 43 44 43 41 40 40 45 44 41 40 41 43 44 44 45 45 46 42 40 42 45 45 47 49 51 53 56 57 57 56 56 54 56 nan nan nan nan nan nan nan nan nan nan nan nan nan nan nan nan nan nan nan nan nan nan nan nan nan nan nan nan nan
19 20 nan 21 nan nan nan nan nan nan nan 18 nan nan nan 21 24 29 34 39 41 43 43 44 45 45 45 44 43 41 42 44 45 46 46 45 45 47 50 50 48 44 44 43 46 49 49 50 52 53 57 59 57 56 nan nan nan nan nan nan nan nan nan nan nan nan nan nan nan nan nan nan nan nan nan nan nan nan nan nan nan nan nan nan nan
nan nan nan nan nan nan nan nan nan nan 18 nan nan nan nan nan 22 26 32 36 39 40 42 42 43 45 45 45 43 43 43 42 44 46 46 47 53 54 53 53 50 56 59 59 55 54 52 48 52 55 54 57 57 nan nan nan nan nan nan nan nan nan nan nan nan nan nan nan nan nan nan nan nan nan nan nan nan nan nan nan nan nan nan nan nan
nan nan nan nan nan nan 21 22 nan nan 20 nan nan nan nan nan nan nan nan nan nan 38 38 39 41 42 44 44 44 nan 43 43 44 46 49 49 48 51 55 60 63 61 60 58 59 61 60 55 50 55 nan nan nan nan nan nan nan nan nan nan nan nan nan nan nan nan nan nan nan nan nan nan nan nan nan nan nan nan nan nan nan nan nan nan nan
Wind_Direction
247 222 242 282 291 274 230 201 227 253 282 305 304 276 260 223 217 172 153 157 149 140 135 127 126 117 113 100 101 101 103 101 104 112 122 133 148 154 153 146 145 148 151 150 149 150 146 147 147 151 151 160 153 156 164 166 162 149 157 144 148 163 163 144 182 149 152 111 92 84 72 32 43 37 77 79 71 70 70 68 74 73 64 60 52
248 220 232 268 269 277 242 202 214 258 258 332 347 287 276 259 247 191 148 151 147 141 141 134 133 122 117 113 116 113 109 103 106 113 121 142 149 156 149 160 154 155 160 157 154 146 140 139 141 149 144 155 155 153 160 160 157 159 163 154 148 174 160 165 180 138 89 145 143 141 97 59 23 103 87 93 99 82 74 61 70 67 60 59 55
250 5 324 268 287 287 248 217 206 223 267 1 345 314 308 261 196 186 158 154 156 154 148 148 139 133 130 138 133 132 118 109 110 112 123 134 141 149 159 165 157 159 163 165 152 140 144 149 137 143 142 145 135 142 156 155 158 165 171 181 158 160 154 181 181 163 153 167 126 80 67 107 356 56 80 78 85 75 79 62 58 73 67 62 62
301 37 352 323 285 275 249 239 217 208 225 241 351 349 62 213 205 175 181 160 171 179 162 165 160 165 155 145 142 142 125 126 136 131 126 132 137 150 158 166 161 160 165 161 156 158 156 147 143 151 143 141 142 150 148 151 157 168 178 186 167 145 148 186 161 205 159 161 136 159 128 110 71 18 91 74 65 38 83 70 65 86 80 61 71
190 237 320 323 293 271 244 240 239 204 213 252 288 327 142 358 302 211 202 185 189 204 189 192 199 182 177 163 145 150 145 128 115 114 117 126 130 138 152 162 172 162 175 169 161 174 167 158 151 147 151 144 146 150 150 165 173 172 196 164 182 160 157 157 176 158 242 193 155 128 126 61 134 103 98 57 89 79 49 77 55 79 96 85 71
215 187 252 287 274 241 234 241 242 209 195 238 233 278 262 293 320 257 211 203 205 229 218 215 219 209 183 141 116 117 120 120 120 124 127 126 121 137 145 152 166 164 170 165 166 173 179 164 149 139 143 161 153 162 168 162 173 158 205 168 170 197 150 138 150 301 202 243 113 92 97 121 92 106 85 77 72 77 99 87 75 85 98 96 69
239 218 233 273 278 266 239 222 220 205 195 224 237 265 280 284 300 333 229 210 215 235 240 222 237 227 198 112 134 136 145 147 147 150 150 141 143 150 153 156 162 151 157 157 166 169 175 170 154 143 158 165 166 159 152 156 181 185 190 174 161 181 147 147 142 140 214 128 124 100 42 87 92 86 92 86 86 81 88 97 100 104 111 97 86
244 250 254 251 283 299 291 258 213 203 199 212 237 255 276 276 288 293 234 221 217 239 250 233 236 240 240 159 196 177 180 176 175 166 166 167 169 160 159 159 168 146 148 156 150 154 157 157 160 159 167 169 176 165 162 170 188 189 194 171 161 163 157 150 161 158 135 143 155 130 92 53 68 64 79 103 94 99 88 79 78 85 99 93 102
232 255 262 277 297 328 307 293 259 216 216 198 216 238 256 261 270 279 257 250 239 263 259 257 222 236 231 222 206 212 208 211 205 190 180 175 166 170 170 172 182 161 143 141 133 134 139 145 159 163 168 167 171 163 160 188 178 186 177 158 146 158 148 171 146 150 132 159 162 125 139 118 97 87 63 58 75 90 94 88 94 78 69 57 70
220 245 261 274 290 314 299 279 273 221 234 215 208 225 248 249 262 281 276 256 256 272 264 270 246 227 227 219 236 233 226 217 211 215 204 197 185 177 188 179 173 178 150 133 136 124 123 128 128 131 147 156 166 178 182 187 174 160 135 131 165 157 160 130 128 141 142 149 138 134 111 108 105 92 79 81 86 86 83 94 99 106 109 100 55
223 232 258 275 285 282 290 305 300 316 249 240 216 218 232 245 258 271 271 253 266 274 277 275 259 240 233 234 240 245 238 236 229 226 217 215 202 201 204 203 183 176 162 150 117 105 104 113 116 121 136 170 173 170 162 158 159 124 117 174 142 132 139 147 142 132 128 136 122 109 98 98 92 87 99 118 111 98 97 90 89 92 106 106 83
263 237 265 285 295 307 289 285 293 260 246 253 229 230 222 233 243 260 260 257 258 269 276 275 264 261 243 254 252 243 234 231 235 227 224 217 212 210 211 208 207 189 164 150 118 92 102 118 117 134 156 160 164 160 159 162 152 152 152 158 142 141 147 146 146 148 139 132 122 125 100 91 104 102 109 105 83 85 81 79 76 80 81 92 93
335 330 294 287 296 304 298 296 291 285 249 230 256 243 233 230 240 250 256 259 252 266 276 276 271 270 262 262 264 245 234 222 223 220 219 220 214 211 216 210 213 191 173 138 120 119 169 172 159 167 174 170 168 171 171 168 161 159 163 153 150 160 148 137 138 133 140 153 153 151 142 139 138 159 130 85 77 67 48 49 58 79 93 96 119
322 323 322 302 290 290 288 298 300 280 288 302 275 253 243 235 240 241 247 253 244 247 268 274 275 268 269 263 262 255 236 226 220 216 222 224 220 206 205 212 217 198 185 171 165 167 177 200 195 179 180 178 177 172 166 165 174 164 167 163 155 166 170 163 147 141 144 138 143 157 160 164 155 137 120 91 94 74 62 64 77 80 99 130 98
301 295 298 303 294 286 282 292 284 283 293 300 288 275 257 247 249 244 241 248 251 250 250 274 267 272 260 257 254 248 242 224 213 211 215 223 216 219 211 199 206 221 207 210 206 184 181 195 202 187 197 187 181 174 170 179 183 179 177 175 170 177 172 163 159 159 158 161 162 159 163 144 144 129 120 122 95 85 57 68 80 92 107 99 87
270 282 283 292 290 283 272 272 281 289 297 292 297 290 281 269 267 266 258 252 253 254 249 261 268 262 267 258 250 234 224 218 215 212 212 206 211 200 218 206 194 206 212 217 221 207 194 188 199 190 193 191 189 182 174 178 194 188 187 182 171 174 176 170 165 161 162 161 159 163 147 131 129 134 140 129 105 77 79 61 48 37 30 38 53
252 260 268 279 282 281 272 272 273 278 285 295 289 290 295 290 287 285 278 265 265 264 264 257 263 259 272 272 247 222 231 221 218 237 204 213 197 204 207 211 212 206 211 224 212 219 204 194 188 187 204 194 190 196 188 190 192 185 184 183 168 166 176 185 180 177 177 169 166 154 152 142 138 136 117 109 101 76 69 57 28 10 330 356 358
246 248 252 262 273 280 276 271 269 271 276 281 287 287 287 288 291 295 291 288 279 280 286 282 279 277 272 279 274 164 164 157 177 207 224 203 210 204 201 216 215 216 216 210 213 210 215 201 191 193 192 192 194 197 200 197 193 182 182 178 171 177 182 189 191 185 183 181 171 160 164 147 147 132 122 127 129 90 76 52 355 319 320 337 330
238 246 249 250 258 266 271 270 268 266 274 279 280 282 280 285 289 292 296 295 292 280 283 275 285 268 266 282 297 286 155 162 175 182 189 198 193 214 207 207 213 218 216 212 200 195 204 208 202 193 204 199 199 197 201 194 188 180 179 181 187 185 186 188 195 200 193 190 186 168 159 145 147 144 147 137 156 151 121 264 293 306 309 320 330
230 237 243 247 252 257 266 273 277 278 276 276 276 274 278 274 270 285 290 283 279 274 268 271 278 275 272 277 284 266 237 168 173 177 180 176 184 183 196 207 209 207 212 214 201 189 193 198 206 201 197 201 205 203 198 202 188 181 183 191 196 209 201 198 192 199 195 192 181 140 118 100 95 98 65 214 19 353 288 279 287 293 306 320 320
232 230 236 243 244 251 257 263 270 273 272 272 271 267 264 262 273 293 296 295 283 269 260 254 248 263 276 280 282 286 293 223 160 173 165 164 173 179 181 190 207 202 200 203 205 198 196 200 193 196 199 206 206 200 200 201 199 195 197 194 191 196 200 197 199 186 161 121 34 293 251 208 217 227 263 265 250 235 322 319 315 316 322 317 319
232 233 234 236 240 244 252 256 258 264 266 273 275 270 266 267 260 272 285 286 284 271 259 250 241 234 254 269 276 273 272 244 185 185 173 158 167 183 179 184 189 199 199 198 202 204 208 205 202 205 201 201 208 213 202 201 200 199 192 198 204 212 211 202 193 154 120 116 226 258 276 306 296 311 317 323 311 293 280 306 306 309 306 312 312
235 232 233 236 241 243 244 248 251 256 260 266 270 273 270 264 258 260 268 273 268 262 260 256 250 240 234 238 256 265 263 262 224 194 186 174 186 183 187 180 181 189 207 201 210 215 213 213 213 211 211 209 212 209 211 207 207 207 202 203 197 199 201 194 159 125 178 244 262 280 288 276 264 275 288 289 293 308 308 317 294 298 302 303 308
237 237 236 236 237 241 239 244 247 247 249 255 259 263 263 255 251 253 261 263 259 250 252 257 254 251 245 229 233 243 258 262 251 223 197 197 195 197 199 182 181 188 198 218 215 216 228 229 223 218 219 217 217 220 216 222 224 226 235 239 246 240 222 197 177 171 262 279 272 265 264 267 271 273 274 281 294 318 316 299 300 304 305 300 293
236 235 234 233 236 239 239 239 240 243 245 248 255 261 259 253 249 253 253 258 257 253 249 254 257 252 246 237 225 231 240 250 247 236 233 217 211 nan 206 200 194 194 202 212 231 231 232 238 233 228 226 228 227 226 225 222 232 241 245 238 238 247 261 282 289 263 272 266 270 272 278 284 283 282 278 288 298 273 290 298 302 300 301 297 294
239 233 231 230 232 233 234 234 235 237 238 242 243 249 257 252 249 247 247 249 252 254 253 253 252 251 243 238 239 231 232 243 247 242 234 230 226 222 nan 215 213 208 211 217 224 236 242 246 242 238 238 238 237 235 233 240 245 243 247 247 244 253 272 276 273 274 277 282 286 292 288 284 276 274 271 272 279 285 308 301 306 298 289 289 292
244 236 233 232 232 232 232 230 230 232 237 238 242 247 250 252 251 251 245 243 247 251 255 258 259 257 250 246 243 243 232 232 241 242 240 233 229 230 229 221 227 225 223 227 236 247 245 245 248 243 243 246 246 244 242 255 251 260 257 250 241 243 254 263 258 260 278 286 290 288 289 285 284 283 283 283 274 276 269 281 296 299 300 298 299
254 246 236 232 233 235 236 236 231 227 228 233 239 244 250 253 253 249 246 241 238 244 250 255 258 256 253 251 246 239 237 234 233 241 243 240 235 233 233 234 228 232 235 234 239 252 255 247 244 248 248 249 251 250 254 259 257 254 251 253 257 256 253 256 263 269 274 277 282 286 292 293 290 290 277 268 275 287 287 276 277 278 292 296 292
257 255 245 236 232 234 236 236 235 230 224 227 232 237 243 250 253 253 252 248 238 232 239 249 251 251 252 250 249 247 241 239 241 241 245 245 240 235 232 231 238 237 238 242 243 244 250 251 247 248 249 250 253 252 256 262 263 263 259 258 259 261 262 261 262 264 276 280 280 282 286 289 281 277 274 276 266 266 276 287 287 294 291 288 288
259 255 250 242 234 232 234 236 238 236 231 226 226 233 238 243 249 253 254 253 246 236 230 234 243 248 250 253 252 251 250 248 246 246 248 251 249 243 235 236 239 244 244 241 243 245 245 247 249 255 253 252 252 252 265 271 265 259 262 259 260 261 263 265 266 265 270 278 281 280 281 283 276 279 278 276 273 275 264 258 270 276 285 286 286
259 256 250 245 237 233 231 231 231 233 233 231 230 231 232 235 241 246 250 252 251 242 234 236 240 240 244 248 251 251 251 252 251 250 249 249 249 247 243 237 238 243 247 252 252 253 252 250 252 254 257 257 259 262 276 276 274 270 264 263 266 266 266 266 267 269 268 267 270 274 276 285 292 288 282 275 270 265 266 267 265 262 258 264 279
255 252 249 242 237 231 229 229 229 230 232 232 231 231 232 233 235 240 247 247 247 244 239 236 238 240 241 243 247 250 249 250 252 251 249 247 247 248 249 247 243 243 246 247 254 256 256 252 250 256 260 260 257 266 277 276 278 277 271 262 262 263 265 268 267 266 268 270 271 277 282 277 281 287 285 281 276 275 274 272 269 267 267 264 264
251 251 249 245 240 234 229 229 232 231 231 232 230 228 227 228 228 227 228 236 244 243 236 233 234 237 241 244 244 245 246 248 250 251 250 248 247 248 250 250 249 246 244 246 248 253 258 259 257 258 259 260 260 269 275 278 278 277 277 265 261 263 265 264 264 266 268 269 273 274 278 282 282 283 284 283 283 283 283 283 281 276 272 270 267
248 246 247 246 242 236 231 228 228 229 230 231 231 229 227 226 225 225 225 225 225 232 235 231 230 233 237 241 243 243 242 244 246 248 250 250 250 249 248 247 246 248 248 248 249 252 253 258 260 262 263 259 262 267 269 272 273 274 272 267 259 261 262 262 263 269 271 268 271 278 282 279 280 284 286 287 288 288 287 287 286 284 284 282 281
246 241 241 242 240 238 233 229 228 228 227 228 230 232 230 227 226 226 226 225 227 222 224 229 229 230 233 237 239 240 240 241 243 246 248 251 253 251 250 248 247 248 250 250 250 250 249 254 258 259 259 259 256 266 264 268 266 268 266 266 260 260 260 263 261 262 261 263 267 268 270 277 282 281 282 288 289 288 288 288 287 287 nan 281 278
242 237 238 238 238 237 237 234 229 226 228 229 228 229 230 229 228 225 224 226 227 228 227 226 229 232 233 237 238 237 237 239 242 245 248 251 253 255 253 251 249 247 248 249 251 250 251 253 256 258 258 261 256 261 263 266 265 265 268 265 265 266 264 261 264 263 262 263 265 269 273 277 281 286 286 287 288 289 nan nan nan nan nan nan nan
246 240 236 236 238 239 237 235 232 228 227 230 231 232 232 232 230 227 225 224 226 229 230 230 229 231 234 236 237 234 233 235 240 244 248 249 251 253 254 254 254 253 252 253 254 254 253 253 255 257 260 257 258 259 260 264 267 268 269 266 268 269 267 267 265 265 265 266 269 273 273 273 276 279 280 282 287 292 nan nan nan nan nan nan nan
251 242 239 236 237 237 236 236 235 232 230 230 231 232 233 236 235 233 230 227 226 226 228 230 233 234 235 238 237 234 232 233 237 242 246 248 249 250 252 255 256 256 256 256 256 257 258 259 262 262 261 259 257 259 260 262 266 270 268 268 268 270 268 267 267 267 270 271 274 276 279 280 281 281 nan 280 277 nan nan nan nan nan nan nan nan
252 246 242 239 239 237 234 235 237 235 233 230 229 231 235 237 239 236 234 231 229 226 226 228 231 234 234 233 236 234 232 233 236 241 246 250 251 251 251 253 254 254 256 258 259 260 261 260 259 259 259 260 259 259 261 262 267 272 271 268 271 270 268 266 267 267 269 273 274 276 279 279 277 nan nan nan nan nan nan nan nan nan nan nan nan
249 247 244 241 243 240 239 237 236 236 234 232 231 233 233 235 237 238 236 234 233 231 229 226 227 228 231 235 236 235 233 233 237 242 246 248 249 249 251 253 254 254 254 257 260 261 264 262 262 259 258 258 260 262 262 263 266 272 273 268 267 267 267 269 268 270 271 270 271 272 269 nan nan nan nan nan nan nan nan nan nan nan nan nan nan
243 243 240 243 243 244 241 238 238 238 237 235 234 234 234 235 235 237 235 234 232 230 229 231 235 234 231 231 237 239 238 239 239 241 243 245 247 249 250 253 255 255 255 256 261 261 262 262 262 262 261 260 260 261 260 258 264 271 274 270 269 269 271 271 271 272 273 273 273 272 nan nan nan nan nan nan nan nan nan nan nan nan nan nan nan
245 245 243 242 242 242 242 241 242 241 239 238 236 233 233 234 234 234 233 231 230 231 232 230 231 238 240 236 234 239 244 243 245 246 247 247 246 247 248 252 253 254 258 259 260 260 262 263 263 264 263 262 262 263 264 256 256 257 259 254 265 268 272 273 273 274 274 274 nan nan nan nan nan nan nan nan nan nan nan nan nan nan nan nan nan
242 243 243 242 241 240 nan 240 243 243 241 240 237 233 232 233 233 231 230 229 228 230 234 235 234 237 244 244 241 238 243 249 249 251 250 250 250 250 249 250 252 254 257 259 260 261 262 263 262 263 263 264 263 261 260 262 259 261 259 258 263 268 271 272 274 nan nan nan nan nan nan nan nan nan nan nan nan nan nan nan nan nan nan nan nan
242 243 244 242 243 nan nan 243 244 245 243 nan 240 235 233 230 229 230 229 228 227 229 232 235 236 239 240 242 245 245 245 252 255 255 254 254 255 253 250 248 251 255 256 256 257 260 263 265 265 264 263 263 263 262 260 260 263 264 263 263 265 268 nan nan nan nan nan nan nan nan nan nan nan nan nan nan nan nan nan nan nan nan nan nan nan
243 240 nan nan nan nan 244 245 247 245 nan nan nan 239 232 229 228 229 228 228 227 228 231 235 234 234 240 245 248 248 248 251 254 258 261 261 257 255 252 250 250 255 258 257 258 260 262 264 266 267 265 264 263 263 261 260 263 263 263 263 nan nan nan nan nan nan nan nan nan nan nan nan nan nan nan nan nan nan nan nan nan nan nan nan nan
245 246 nan nan nan 252 253 250 251 nan nan nan nan 247 238 234 nan nan nan 229 229 230 231 234 236 237 236 241 248 250 246 247 252 254 260 264 260 257 251 252 252 255 256 257 259 260 262 263 263 264 266 265 266 267 266 265 264 263 260 nan nan nan nan nan nan nan nan nan nan nan nan nan nan nan nan nan nan nan nan nan nan nan nan nan nan
248 250 nan 251 250 250 249 250 252 nan nan nan nan nan nan nan nan nan nan 232 234 234 235 236 237 239 242 246 251 255 254 249 247 247 247 247 247 249 252 256 257 256 259 259 259 261 263 262 264 263 263 265 266 265 262 261 nan nan nan nan nan nan nan nan nan nan nan nan nan nan nan nan nan nan nan nan nan nan nan nan nan nan nan nan nan
nan 255 nan 255 253 250 249 nan nan nan nan 259 257 nan nan nan nan nan nan nan 238 237 238 238 239 242 243 244 248 252 254 253 248 247 248 249 249 249 246 240 237 243 255 258 259 262 266 267 266 265 263 261 260 260 260 262 nan nan nan nan nan nan nan nan nan nan nan nan nan nan nan nan nan nan nan nan nan nan nan nan nan nan nan nan nan
263 259 nan 254 nan nan nan nan nan nan nan 260 nan nan nan 254 252 247 244 242 242 242 241 241 242 244 245 247 249 252 256 259 257 254 250 248 248 249 250 247 238 236 240 251 258 256 256 259 262 265 268 267 264 261 nan nan nan nan nan nan nan nan nan nan nan nan nan nan nan nan nan nan nan nan nan nan nan nan nan nan nan nan nan nan nan
nan nan nan nan nan nan nan nan nan nan 261 nan nan nan nan nan 258 255 250 247 246 246 245 244 243 244 245 246 246 250 255 258 260 261 259 254 248 247 249 248 243 235 235 239 245 251 250 253 259 257 257 265 266 nan nan nan nan nan nan nan nan nan nan nan nan nan nan nan nan nan nan nan nan nan nan nan nan nan nan nan nan nan nan nan nan
nan nan nan nan nan nan 258 258 nan nan 262 nan nan nan nan nan nan nan nan nan nan 247 247 246 245 244 245 247 249 nan 254 258 261 261 259 257 252 244 241 249 250 240 235 235 238 244 248 243 244 254 nan nan nan nan nan nan nan nan nan nan nan nan nan nan nan nan nan nan nan nan nan nan nan nan nan nan nan nan nan nan nan nan nan nan nan